Regional Weather Roundup
Issued by NWS State College, PA

Home | Current Version | Previous Version | Graphics & Text | Print | Product List | Glossary On
Versions: 1 2 3 4 5 6 7 8 9 10 11 12 13 14 15 16 17 18 19 20 21 22 23 24 25 26 27 28 29 30 31 32 33 34 35 36 37 38 39 40 41 42 43 44 45 46 47 48 49 50
000
ASUS41 KCTP 281810
RWRCTP

REGIONAL WEATHER ROUNDUP
NATIONAL WEATHER SERVICE STATE COLLEGE PA
200 PM EDT SAT MAY 28 2016

Note: "fair" indicates few or no clouds below 12,000 feet with no
significant weather and/or obstructions to visibility.

* = STATION THAT DOES NOT REPORT PRECIPITATION /E.G. RAIN...SNOW...ETC/
    THUNDER OR FOG.

PAZ002>004-007>009-013>016-020>023-029>032-281900-
WESTERN PENNSYLVANIA

CITY           SKY/WX    TMP DP  RH WIND       PRES   REMARKS
ERIE           MOSUNNY   90  67  46 N8        30.08F
MEADVILLE      SUNNY     85  61  44 VRB7G20   30.12F
FRANKLIN*      MOSUNNY   82  64  54 S9        30.16F
NEW CASTLE     FAIR      85  67  54 VRB3      30.12F
BEAVER COUNTY  PTSUNNY   82  66  57 S6        30.14F
BUTLER*        MOSUNNY   86  64  48 S8        30.16F
PITTSBURGH INT MOSUNNY   86  63  45 S9        30.13F
PITTSBURGH     SUNNY     84  64  50 S6        30.13F
INDIANA*       SUNNY     86  68  54 VRB7      30.18F
LATROBE        MOSUNNY   84  66  54 W6        30.15F
WASHINGTON CO* MOSUNNY   82  66  57 S7        30.15F
$$

PAZ004>006-010>012-017>019-024>028-033>037-041-042-045-046-049>053-281900-
CENTRAL PENNSYLVANIA

CITY           SKY/WX    TMP DP  RH WIND       PRES   REMARKS
BRADFORD       MOSUNNY   85  59  41 VRB3      30.17F
DUBOIS         CLOUDY    84  64  50 SW8       30.16F
CLEARFIELD     CLOUDY    88  64  44 NW5       30.15F
JOHNSTOWN      PTSUNNY   81  59  47 CALM      30.19F
ALTOONA        MOSUNNY   85  63  47 SE8       30.17F
STATE COLLEGE  PTSUNNY   81  68  65 W6        30.15S
WILLIAMSPORT   SUNNY     89  65  44 E3        30.08F
SELINSGROVE    SUNNY     90  65  43 VRB5      30.11F
FT INDIANTOWN  SUNNY     87  68  53 SW8       30.12F
CAPITAL CITY   MOSUNNY   88  67  49 SE7       30.11F
HARRISBURG     MOSUNNY   89  69  51 SE5       30.11F
YORK           PTSUNNY   86  69  56 SW8       30.13F
$$

PAZ038>040-043-044-047-048-054-055-060>062-067>071-281900-
EASTERN PENNSYLVANIA

CITY           SKY/WX    TMP DP  RH WIND       PRES   REMARKS
SCRANTON       MOSUNNY   91  65  41 NW12      30.11F
MOUNT POCONO   CLOUDY    83  61  47 S10G17    30.17F
ALLENTOWN      MOSUNNY   91  68  46 S7        30.11F HX  95
QUAKERTOWN*    CLEAR     90  68  48 SW8       30.13F
READING        SUNNY     90  67  46 S8        30.10F
LANCASTER      MOSUNNY   87  69  54 VRB7      30.12F
COATESVILLE    CLEAR     84  68  58 VRB6      30.16F
POTTSTOWN      SUNNY     87  68  52 S9        30.13F
BLUE BELL      SUNNY     86  68  54 SW9       30.12F
DOYLESTOWN     SUNNY     86  66  51 S9        30.12F
WILLOW GROVE   NOT AVBL
NORTH PHILA    SUNNY     89  68  49 SW13G18   30.13F
PHILADELPHIA   MOSUNNY   88  65  46 SW13      30.13F
$$




USA.gov is the U.S. government's official web portal to all federal, state and local government web resources and services.